{"data":{"norad_id":68945,"intl_designator":"2026-098AC","name":"KUIPER-00451","alt_names":[],"object_type":"PAYLOAD","status":"ACTIVE","operator":null,"country":"US","launch_date":"2026-04-30","launch_site_code":"FRGUI","launch_vehicle":null,"mission":null,"orbit_class":"UNKNOWN","rcs_meters":null,"size_class":null,"mass_kg":null,"dimensions":null,"purposes":[],"wikipedia_slug":null,"has_3d_model":false,"image_url":null,"decayed_at":null,"tle_current":{"epoch":"2026-09-19T14:56:15.964800Z","epoch_age_seconds":95181,"freshness":"FRESH","line1":"1 68945U 26098AC  26262.62240700  .00000907  00000+0  14792-3 0  9997","line2":"2 68945  51.9015   5.5641 0000352 133.4554 226.6438 14.79932494 21399","mean_motion":14.79932494,"eccentricity":3.52e-5,"inclination_deg":51.9015,"raan_deg":5.5641,"arg_perigee_deg":133.4554,"mean_anomaly_deg":226.6438,"bstar":0.00014792,"rev_number":2139,"period_min":97.301735439833,"perigee_km":629.29055635929,"apogee_km":629.78389662483,"semimajor_km":7007.6742264921,"source":"CELESTRAK","updated_at":"2026-09-20T09:00:24.584056Z"}}}